カタログに戻る

FENGYUN 1C DEB

運用中PO
NORAD 31360·DEBRIS·🇨🇳 China

打ち上げ May 10, 1999 から Taiyuan Satellite Launch Center

Loading…

次のパス (今後24時間)

TLE

経年Source: Space-Track

元期: Sep 4, 2026, 19:12 UTC

1 31360U 99025BRQ 26247.80005440  .00002304  00000-0  11498-2 0  9994
2 31360  97.9847  83.1521 0100256 174.3383 185.8952 14.15091094669599

AllMySatでFENGYUN 1C DEBをリアルタイム追跡

Download on the App Store